Location: Oshawa
(43.9000°N, 78.8670°W)
Time: 14:43:22
(UTC-04:00)

Transit 2A Rocket - Visible Passes

Search period start: 27 August 2016 00:00
Search period end: 06 September 2016 00:00
Orbit: 584 x 920 km, 66.7° (Epoch: 26 August)

Date Brightness Start Highest point End Pass type
(mag) Time Alt. Az. Time Alt. Az. Time Alt. Az.
27 Aug 8.1 01:01:53 10° WNW 01:05:03 14° NNW 01:08:12 10° N visible
27 Aug 8.3 04:34:39 10° N 04:36:28 11° NNE 04:38:14 10° NE visible
27 Aug 6.5 20:51:58 10° SSE 20:56:17 21° ESE 21:00:43 10° ENE visible
27 Aug 5.5 22:32:20 10° SW 22:38:22 73° NW 22:44:32 10° NNE visible
28 Aug 7.8 00:17:52 10° W 00:22:07 19° NW 00:26:22 10° N visible
28 Aug 7.5 05:33:28 10° NNW 05:38:17 25° NE 05:42:47 10° E visible
28 Aug 5.2 21:50:01 10° SSW 21:56:01 75° ESE 22:02:10 10° NE visible
28 Aug 7.3 23:34:16 10° W 23:39:19 26° NW 23:44:22 10° NNE visible
29 Aug 8.0 04:51:30 10° N 04:55:28 18° NE 04:59:15 10° ENE visible
29 Aug 5.6 21:08:05 10° S 21:13:47 47° ESE 21:19:38 10° NE visible
29 Aug 6.8 22:51:02 10° WSW 22:56:37 37° NW 23:02:17 10° NNE visible
30 Aug 8.3 00:39:01 10° NW 00:41:08 12° NNW 00:43:15 10° N visible
30 Aug 8.2 04:09:42 10° N 04:12:32 14° NNE 04:15:17 10° ENE visible
30 Aug 6.2 05:51:06 10° NNW 05:56:44 49° NE 06:01:50 10° SE visible
30 Aug 6.1 20:26:37 10° SSE 20:31:42 29° ESE 20:36:53 10° NE visible
30 Aug 6.1 22:08:08 10° SW 22:14:04 55° NW 22:20:06 10° NNE visible
30 Aug 8.1 23:54:35 10° WNW 23:58:08 15° NNW 00:01:39 10° N visible
31 Aug 8.4 03:28:38 10° NNE 03:29:30 10° NNE 03:30:21 10° NNE visible
31 Aug 7.0 05:08:57 10° NNW 05:14:09 32° NE 05:18:56 10° ESE visible
31 Aug 5.4 21:25:35 10° SSW 21:31:38 83° WNW 21:37:49 10° NNE visible
31 Aug 7.7 23:10:43 10° W 23:15:14 21° NW 23:19:46 10° N visible
01 Sep 7.6 04:26:53 10° NNW 04:31:25 23° NE 04:35:40 10° E visible
01 Sep 5.3 20:43:22 10° SSW 20:49:19 65° ESE 20:55:25 10° NE visible
01 Sep 7.3 22:27:14 10° WSW 22:32:28 29° NW 22:37:44 10° NNE visible
02 Sep 8.0 03:44:58 10° N 03:48:34 16° NNE 03:52:01 10° ENE visible
02 Sep 5.5 05:26:41 10° NNW 05:32:26 67° NE 05:37:35 10° SE visible
02 Sep 6.7 21:44:06 10° WSW 21:49:50 42° NW 21:55:37 10° NNE visible
02 Sep 8.3 23:31:34 10° NW 23:34:12 13° NNW 23:36:48 10° N visible
03 Sep 8.3 03:03:17 10° N 03:05:35 12° NNE 03:07:50 10° NE visible
03 Sep 6.4 04:44:27 10° NNW 04:49:56 42° NE 04:54:55 10° ESE visible
03 Sep 5.9 21:01:17 10° SW 21:07:19 62° NW 21:13:24 10° NNE visible
03 Sep 8.1 22:47:21 10° WNW 22:51:13 17° NNW 22:55:05 10° N visible
04 Sep 7.1 04:02:20 10° NNW 04:07:18 29° NE 04:11:53 10° ESE visible
04 Sep 5.1 05:44:48 10° NW 05:50:18 54° WSW 05:55:15 10° S visible
04 Sep 5.4 20:18:51 10° SSW 20:24:55 87° ESE 20:31:06 10° NNE visible
04 Sep 7.7 22:03:35 10° W 22:08:22 23° NW 22:13:08 10° NNE visible
05 Sep 7.6 03:20:19 10° N 03:24:32 20° NE 03:28:30 10° E visible
05 Sep 5.0 05:02:20 10° NNW 05:08:03 89° WSW 05:13:11 10° SSE visible
05 Sep 7.2 21:20:13 10° WSW 21:25:38 32° NW 21:31:06 10° NNE visible
05 Sep 8.4 23:09:04 10° NW 23:10:18 11° NNW 23:11:31 10° N visible
